New York JFK, NY

7:17 PM EDT on July 21, 2017 (GMT -0400)
Kennedy International

Weather History for KJFK - March, 2012

Change the Weather History Date:

Thursday, March 15, 2012

  Actual Average Record
Temperature  
Mean Temperature 45 °F 41 °F  
Max Temperature 47 °F 49 °F 65 °F (1986)
Min Temperature 43 °F 34 °F 15 °F (1993)
Degree Days  
Heating Degree Days 20 24  
Month to date heating degree days 297 384  
Since 1 July heating degree days 3218 3895  
Cooling Degree Days 0 0  
Month to date cooling degree days 0 0  
Year to date cooling degree days 0 0  
Moisture  
Dew Point 40 °F    
Average Humidity 83    
Maximum Humidity 89    
Minimum Humidity 76    
Precipitation  
Precipitation T in 0.12 in 0.50 in (1999)
Month to date precipitation 0.55 1.69  
Year to date precipitation 4.00 7.44  
Snow  
Snow 0.00 in 0.10 in 2.30 in (1999)
Month to date snowfall 0.0 2.3  
Since 1 July snowfall 3.7 21.8  
Snow Depth 0.00 in    
Sea Level Pressure  
Sea Level Pressure 30.30 in    
Wind  
Wind Speed 10 mph (East)    
Max Wind Speed 16 mph    
Max Gust Speed 21 mph    
Visibility 9 miles    
Events      
T = Trace of Precipitation, MM = Missing Value Source: NWS Daily Summary

Daily Weather History Graph

Daily Weather History Graph

Search for Another Location

Airport or City:

Trip Planner

Search our weather history database for the weather conditions in past years. The results will help you decide how hot, cold, wet, or windy it might be!

Date:

Astronomy

Mar. 15, 2012 Rise Set
Actual Time 7:05 AM EDT 7:02 PM EDT
Civil Twilight 6:38 AM EDT 7:29 PM EDT
Nautical Twilight 6:07 AM EDT 8:01 PM EDT
Astronomical Twilight 5:34 AM EDT 8:33 PM EDT
Moon 2:33 AM EDT (3/15) 12:15 PM EDT (3/15)
Length of Visible Light 12h 50m
Length of Day
11h 56m
Last Quarter, 43% of the Moon is Illuminated
Mar 15
Last Quarter
Mar 22
New
Mar 30
First Quarter
Apr 6
Full
Apr 13
Last Quarter

Hourly Weather History & Observations

Time (EDT) Temp. Windchill Dew Point Humidity Pressure Visibility Wind Dir Wind Speed Gust Speed Precip Events Conditions
12:51 AM 48.0 °F - 41.0 °F 77% 30.22 in 10.0 mi East 11.5 mph - N/A   Partly Cloudy
1:51 AM 46.0 °F 42.5 °F 41.0 °F 83% 30.24 in 10.0 mi East 6.9 mph - N/A   Partly Cloudy
2:51 AM 44.1 °F 39.0 °F 39.9 °F 85% 30.25 in 10.0 mi East 9.2 mph - N/A   Partly Cloudy
3:40 AM 44.6 °F 39.7 °F 41.0 °F 87% 30.26 in 10.0 mi ENE 9.2 mph - N/A   Mostly Cloudy
3:51 AM 45.0 °F 40.1 °F 39.9 °F 82% 30.26 in 10.0 mi ENE 9.2 mph - N/A   Overcast
4:51 AM 44.1 °F 39.0 °F 39.9 °F 85% 30.26 in 10.0 mi ENE 9.2 mph - N/A   Overcast
5:51 AM 44.1 °F 40.1 °F 39.0 °F 82% 30.28 in 10.0 mi East 6.9 mph - N/A   Mostly Cloudy
6:51 AM 44.1 °F 41.5 °F 39.0 °F 82% 30.30 in 10.0 mi East 4.6 mph - N/A   Mostly Cloudy
7:51 AM 44.1 °F 38.6 °F 39.0 °F 82% 30.32 in 10.0 mi East 10.4 mph - N/A   Overcast
8:51 AM 45.0 °F 39.3 °F 39.9 °F 82% 30.33 in 10.0 mi East 11.5 mph - N/A   Overcast
9:51 AM 45.0 °F 38.9 °F 39.9 °F 82% 30.33 in 10.0 mi ESE 12.7 mph - N/A   Overcast
10:25 AM 44.6 °F 38.4 °F 39.2 °F 81% 30.34 in 10.0 mi ESE 12.7 mph - N/A   Overcast
10:51 AM 46.0 °F 39.6 °F 39.0 °F 76% 30.34 in 10.0 mi ESE 15.0 mph - N/A   Overcast
11:51 AM 46.0 °F 40.2 °F 39.0 °F 76% 30.35 in 10.0 mi East 12.7 mph - N/A   Overcast
12:51 PM 46.9 °F - 39.0 °F 74% 30.34 in 10.0 mi East 10.4 mph - N/A   Overcast
1:51 PM 46.9 °F - 39.0 °F 74% 30.34 in 10.0 mi ESE 11.5 mph - N/A   Overcast
2:51 PM 46.9 °F - 39.0 °F 74% 30.31 in 10.0 mi East 13.8 mph - N/A   Overcast
3:51 PM 46.0 °F 40.6 °F 39.0 °F 76% 30.30 in 10.0 mi ESE 11.5 mph - N/A   Overcast
4:51 PM 46.0 °F 41.0 °F 39.0 °F 76% 30.30 in 10.0 mi ESE 10.4 mph - N/A   Overcast
5:51 PM 46.0 °F 40.2 °F 39.0 °F 76% 30.28 in 10.0 mi East 12.7 mph - N/A   Overcast
6:51 PM 45.0 °F 38.9 °F 39.0 °F 80% 30.29 in 10.0 mi East 12.7 mph - N/A   Overcast
7:51 PM 44.1 °F 38.1 °F 39.9 °F 85% 30.31 in 10.0 mi East 11.5 mph - N/A   Overcast
8:31 PM 44.6 °F 39.2 °F 39.2 °F 81% 30.31 in 7.0 mi East 10.4 mph - 0.00 in   Light Drizzle
8:51 PM 44.1 °F 39.5 °F 41.0 °F 89% 30.32 in 7.0 mi East 8.1 mph - 0.00 in   Light Drizzle
9:51 PM 44.1 °F 39.5 °F 41.0 °F 89% 30.32 in 6.0 mi ENE 8.1 mph - 0.00 in   Light Drizzle
10:51 PM 44.1 °F 38.6 °F 39.9 °F 85% 30.31 in 5.0 mi East 10.4 mph - 0.00 in   Light Drizzle
11:08 PM 44.6 °F 39.7 °F 41.0 °F 87% 30.31 in 5.0 mi East 9.2 mph - 0.00 in   Light Drizzle
11:28 PM 42.8 °F 35.8 °F 39.2 °F 87% 30.31 in 6.0 mi East 13.8 mph - 0.00 in   Light Drizzle
11:51 PM 43.0 °F 37.2 °F 39.9 °F 89% 30.32 in 6.0 mi East 10.4 mph - 0.00 in   Light Drizzle